Time,TemperatureF,DewpointF,PressureIn,WindDirection,WindDirectionDegrees,WindSpeedMPH,WindSpeedGustMPH,Humidity,HourlyPrecipIn,Conditions,Clouds,dailyrainin,SoftwareType,DateUTC
2013-01-16 00:02:00,33.0,27.0,30.55,NW,322,0.0,1.0,79,0.00,,,0.00,,2013-01-16 08:02:00,
2013-01-16 00:11:00,33.0,27.0,30.55,NW,322,0.0,1.0,79,0.00,,,0.00,,2013-01-16 08:11:00,
2013-01-16 00:22:00,33.0,27.0,30.55,North,349,0.0,1.0,79,0.00,,,0.00,,2013-01-16 08:22:00,
2013-01-16 00:32:00,33.0,27.0,30.55,NNW,342,0.0,1.0,79,0.00,,,0.00,,2013-01-16 08:32:00,
2013-01-16 00:42:00,33.0,27.0,30.55,NNW,342,0.0,1.0,79,0.00,,,0.00,,2013-01-16 08:42:00,
2013-01-16 00:52:00,33.0,27.0,30.54,North,358,0.0,2.0,79,0.00,,,0.00,,2013-01-16 08:52:00,
2013-01-16 01:02:00,33.0,27.0,30.54,North,354,0.0,1.0,79,0.00,,,0.00,,2013-01-16 09:02:00,
2013-01-16 01:11:00,33.0,27.0,30.54,North,354,0.0,1.0,79,0.00,,,0.00,,2013-01-16 09:11:00,
2013-01-16 01:22:00,33.0,27.0,30.54,North,354,0.0,1.0,79,0.00,,,0.00,,2013-01-16 09:22:00,
2013-01-16 01:32:00,33.0,27.0,30.54,North,360,1.0,2.0,79,0.00,,,0.00,,2013-01-16 09:32:00,
2013-01-16 01:42:00,33.0,27.0,30.54,North,360,1.0,2.0,79,0.00,,,0.00,,2013-01-16 09:42:00,
2013-01-16 01:52:00,33.0,27.0,30.54,North,355,0.0,1.0,79,0.00,,,0.00,,2013-01-16 09:52:00,
2013-01-16 02:02:00,33.0,27.0,30.54,NNW,337,0.0,1.0,79,0.00,,,0.00,,2013-01-16 10:02:00,
2013-01-16 02:11:00,33.0,27.0,30.54,NNW,337,0.0,1.0,79,0.00,,,0.00,,2013-01-16 10:11:00,
2013-01-16 02:22:00,33.0,27.0,30.54,North,358,0.0,2.0,78,0.00,,,0.00,,2013-01-16 10:22:00,
2013-01-16 02:32:00,33.0,27.0,30.55,North,1,0.0,1.0,77,0.00,,,0.00,,2013-01-16 10:32:00,
2013-01-16 02:42:00,33.0,27.0,30.55,North,1,0.0,1.0,77,0.00,,,0.00,,2013-01-16 10:42:00,
2013-01-16 02:52:00,33.0,26.0,30.55,North,358,0.0,1.0,76,0.00,,,0.00,,2013-01-16 10:52:00,
2013-01-16 03:02:00,33.0,26.0,30.55,North,355,0.0,1.0,76,0.00,,,0.00,,2013-01-16 11:02:00,
2013-01-16 03:11:00,33.0,26.0,30.55,North,355,0.0,1.0,76,0.00,,,0.00,,2013-01-16 11:11:00,
2013-01-16 03:22:00,33.0,26.0,30.55,North,349,1.0,1.0,76,0.00,,,0.00,,2013-01-16 11:22:00,
2013-01-16 03:32:00,33.0,26.0,30.54,North,351,1.0,1.0,75,0.00,,,0.00,,2013-01-16 11:32:00,
2013-01-16 03:42:00,33.0,26.0,30.54,North,351,1.0,1.0,75,0.00,,,0.00,,2013-01-16 11:42:00,
2013-01-16 03:52:00,33.0,26.0,30.54,North,352,0.0,1.0,75,0.00,,,0.00,,2013-01-16 11:52:00,
2013-01-16 04:02:00,33.0,26.0,30.54,North,349,0.0,2.0,75,0.00,,,0.00,,2013-01-16 12:02:00,
2013-01-16 04:12:00,33.0,26.0,30.54,North,349,0.0,2.0,75,0.00,,,0.00,,2013-01-16 12:12:00,
2013-01-16 04:22:00,33.0,26.0,30.53,North,349,1.0,1.0,74,0.00,,,0.00,,2013-01-16 12:22:00,
2013-01-16 04:32:00,33.0,25.0,30.53,North,356,1.0,2.0,73,0.00,,,0.00,,2013-01-16 12:32:00,
2013-01-16 04:42:00,33.0,25.0,30.53,North,356,1.0,2.0,73,0.00,,,0.00,,2013-01-16 12:42:00,
2013-01-16 04:53:00,33.0,25.0,30.53,North,1,0.0,1.0,73,0.00,,,0.00,,2013-01-16 12:53:00,
2013-01-16 05:02:00,33.0,25.0,30.53,NNW,346,1.0,2.0,73,0.00,,,0.00,,2013-01-16 13:02:00,
2013-01-16 05:12:00,33.0,25.0,30.53,NNW,346,1.0,2.0,73,0.00,,,0.00,,2013-01-16 13:12:00,
2013-01-16 05:22:00,33.0,25.0,30.53,NNW,348,1.0,2.0,73,0.00,,,0.00,,2013-01-16 13:22:00,
2013-01-16 05:32:00,33.0,25.0,30.53,NNW,342,0.0,1.0,73,0.00,,,0.00,,2013-01-16 13:32:00,
2013-01-16 05:42:00,33.0,25.0,30.53,NNW,342,0.0,1.0,73,0.00,,,0.00,,2013-01-16 13:42:00,
2013-01-16 05:53:00,33.0,25.0,30.53,North,356,1.0,1.0,72,0.00,,,0.00,,2013-01-16 13:53:00,
2013-01-16 06:02:00,33.0,25.0,30.53,North,356,1.0,1.0,72,0.00,,,0.00,,2013-01-16 14:02:00,
2013-01-16 06:12:00,33.0,25.0,30.53,North,356,1.0,1.0,72,0.00,,,0.00,,2013-01-16 14:12:00,
2013-01-16 06:22:00,33.0,25.0,30.53,North,353,0.0,1.0,73,0.00,,,0.00,,2013-01-16 14:22:00,
2013-01-16 06:32:00,33.0,25.0,30.53,North,352,0.0,1.0,72,0.00,,,0.00,,2013-01-16 14:32:00,
2013-01-16 06:43:00,33.0,25.0,30.53,North,352,0.0,1.0,72,0.00,,,0.00,,2013-01-16 14:43:00,
2013-01-16 06:53:00,33.0,25.0,30.53,North,349,0.0,1.0,73,0.00,,,0.00,,2013-01-16 14:53:00,
2013-01-16 07:02:00,33.0,25.0,30.53,North,349,0.0,1.0,73,0.00,,,0.00,,2013-01-16 15:02:00,
2013-01-16 07:12:00,33.0,25.0,30.53,North,349,0.0,1.0,73,0.00,,,0.00,,2013-01-16 15:12:00,
2013-01-16 07:22:00,33.0,25.0,30.52,North,359,1.0,2.0,72,0.00,,,0.00,,2013-01-16 15:22:00,
2013-01-16 07:32:00,34.0,26.0,30.53,NNW,342,0.0,1.0,71,0.00,,,0.00,,2013-01-16 15:32:00,
2013-01-16 07:42:00,34.0,26.0,30.53,NNW,342,0.0,1.0,71,0.00,,,0.00,,2013-01-16 15:42:00,
2013-01-16 07:53:00,34.0,26.0,30.52,WNW,300,0.0,2.0,73,0.00,,,0.00,,2013-01-16 15:53:00,
2013-01-16 08:02:00,34.0,26.0,30.52,North,355,1.0,2.0,71,0.00,,,0.00,,2013-01-16 16:02:00,
2013-01-16 08:12:00,34.0,26.0,30.52,North,355,1.0,2.0,71,0.00,,,0.00,,2013-01-16 16:12:00,
2013-01-16 08:22:00,35.0,26.0,30.52,North,360,1.0,2.0,70,0.00,,,0.00,,2013-01-16 16:22:00,
2013-01-16 08:32:00,37.0,27.0,30.52,North,355,1.0,2.0,67,0.00,,,0.00,,2013-01-16 16:32:00,
2013-01-16 08:42:00,37.0,27.0,30.52,North,355,1.0,2.0,67,0.00,,,0.00,,2013-01-16 16:42:00,
2013-01-16 08:53:00,38.0,27.0,30.51,North,5,1.0,2.0,64,0.00,,,0.00,,2013-01-16 16:53:00,
2013-01-16 09:02:00,39.0,27.0,30.51,North,359,0.0,2.0,63,0.00,,,0.00,,2013-01-16 17:02:00,
2013-01-16 09:12:00,39.0,27.0,30.51,North,359,0.0,2.0,63,0.00,,,0.00,,2013-01-16 17:12:00,
2013-01-16 09:22:00,41.0,28.0,30.51,North,360,1.0,2.0,59,0.00,,,0.00,,2013-01-16 17:22:00,
2013-01-16 09:32:00,44.0,29.0,30.51,North,5,0.0,1.0,55,0.00,,,0.00,,2013-01-16 17:32:00,
2013-01-16 09:43:00,44.0,29.0,30.51,North,5,0.0,1.0,55,0.00,,,0.00,,2013-01-16 17:43:00,
2013-01-16 09:53:00,46.0,29.0,30.50,North,5,1.0,1.0,51,0.00,,,0.00,,2013-01-16 17:53:00,
2013-01-16 10:02:00,49.0,30.0,30.50,North,5,0.0,1.0,47,0.00,,,0.00,,2013-01-16 18:02:00,
2013-01-16 10:22:00,52.0,30.0,30.49,North,5,0.0,1.0,43,0.00,,,0.00,,2013-01-16 18:22:00,
2013-01-16 10:33:00,54.0,32.0,30.48,North,5,0.0,1.0,43,0.00,,,0.00,,2013-01-16 18:33:00,
2013-01-16 10:42:00,54.0,32.0,30.48,North,5,0.0,1.0,43,0.00,,,0.00,,2013-01-16 18:42:00,
2013-01-16 10:53:00,57.0,33.0,30.47,South,187,1.0,3.0,40,0.00,,,0.00,,2013-01-16 18:53:00,
2013-01-16 11:02:00,59.0,32.0,30.47,SSE,158,1.0,3.0,36,0.00,,,0.00,,2013-01-16 19:02:00,
2013-01-16 11:22:00,61.0,32.0,30.46,SSE,165,2.0,3.0,34,0.00,,,0.00,,2013-01-16 19:22:00,
2013-01-16 11:32:00,63.0,33.0,30.45,South,191,1.0,3.0,32,0.00,,,0.00,,2013-01-16 19:32:00,
2013-01-16 11:52:00,65.0,33.0,30.44,SSE,166,2.0,4.0,30,0.00,,,0.00,,2013-01-16 19:52:00,
2013-01-16 12:02:00,66.0,34.0,30.43,SSE,162,2.0,4.0,30,0.00,,,0.00,,2013-01-16 20:02:00,
2013-01-16 12:22:00,66.0,31.0,30.42,South,179,2.0,4.0,27,0.00,,,0.00,,2013-01-16 20:22:00,
2013-01-16 12:32:00,67.0,31.0,30.40,SE,145,1.0,4.0,26,0.00,,,0.00,,2013-01-16 20:32:00,
2013-01-16 12:42:00,67.0,31.0,30.40,SE,145,1.0,4.0,26,0.00,,,0.00,,2013-01-16 20:42:00,
2013-01-16 12:53:00,68.0,32.0,30.39,SW,228,1.0,3.0,26,0.00,,,0.00,,2013-01-16 20:53:00,
2013-01-16 13:02:00,68.0,33.0,30.38,South,184,1.0,3.0,27,0.00,,,0.00,,2013-01-16 21:02:00,
2013-01-16 13:12:00,68.0,33.0,30.38,South,184,1.0,3.0,27,0.00,,,0.00,,2013-01-16 21:12:00,
2013-01-16 13:22:00,69.0,33.0,30.37,SSE,149,1.0,3.0,26,0.00,,,0.00,,2013-01-16 21:22:00,
2013-01-16 13:32:00,70.0,33.0,30.36,SSW,197,1.0,4.0,25,0.00,,,0.00,,2013-01-16 21:32:00,
2013-01-16 13:42:00,70.0,33.0,30.36,SSW,197,1.0,4.0,25,0.00,,,0.00,,2013-01-16 21:42:00,
2013-01-16 13:52:00,70.0,32.0,30.36,SSW,203,2.0,4.0,24,0.00,,,0.00,,2013-01-16 21:52:00,
2013-01-16 14:02:00,69.0,34.0,30.35,SSE,161,2.0,5.0,27,0.00,,,0.00,,2013-01-16 22:02:00,
2013-01-16 14:12:00,69.0,34.0,30.35,SSE,161,2.0,5.0,27,0.00,,,0.00,,2013-01-16 22:12:00,
2013-01-16 14:22:00,69.0,35.0,30.35,SSE,159,2.0,4.0,28,0.00,,,0.00,,2013-01-16 22:22:00,
2013-01-16 14:32:00,69.0,35.0,30.35,South,173,2.0,4.0,28,0.00,,,0.00,,2013-01-16 22:32:00,
2013-01-16 14:42:00,69.0,35.0,30.35,South,173,2.0,4.0,28,0.00,,,0.00,,2013-01-16 22:42:00,
2013-01-16 14:52:00,68.0,35.0,30.35,SSW,194,2.0,4.0,30,0.00,,,0.00,,2013-01-16 22:52:00,
2013-01-16 15:02:00,68.0,35.0,30.35,SSE,160,1.0,3.0,30,0.00,,,0.00,,2013-01-16 23:02:00,
2013-01-16 15:12:00,68.0,35.0,30.35,SSE,160,1.0,3.0,30,0.00,,,0.00,,2013-01-16 23:12:00,
2013-01-16 15:22:00,69.0,37.0,30.35,SSE,157,1.0,2.0,31,0.00,,,0.00,,2013-01-16 23:22:00,
2013-01-16 15:32:00,70.0,37.0,30.34,WNW,287,0.0,2.0,30,0.00,,,0.00,,2013-01-16 23:32:00,
2013-01-16 15:42:00,70.0,37.0,30.34,WNW,287,0.0,2.0,30,0.00,,,0.00,,2013-01-16 23:42:00,
2013-01-16 15:53:00,69.0,39.0,30.34,West,277,0.0,0.0,33,0.00,,,0.00,,2013-01-16 23:53:00,
2013-01-16 16:02:00,68.0,39.0,30.34,West,277,0.0,0.0,35,0.00,,,0.00,,2013-01-17 00:02:00,
2013-01-16 16:22:00,64.0,37.0,30.34,WNW,284,1.0,2.0,36,0.00,,,0.00,,2013-01-17 00:22:00,
2013-01-16 16:32:00,61.0,36.0,30.34,WNW,284,0.0,1.0,40,0.00,,,0.00,,2013-01-17 00:32:00,
2013-01-16 16:42:00,61.0,36.0,30.34,WNW,284,0.0,1.0,40,0.00,,,0.00,,2013-01-17 00:42:00,
2013-01-16 16:52:00,59.0,37.0,30.34,WNW,284,0.0,1.0,44,0.00,,,0.00,,2013-01-17 00:52:00,
2013-01-16 17:02:00,57.0,36.0,30.35,WNW,284,0.0,0.0,46,0.00,,,0.00,,2013-01-17 01:02:00,
2013-01-16 17:12:00,57.0,36.0,30.35,WNW,284,0.0,0.0,46,0.00,,,0.00,,2013-01-17 01:12:00,
2013-01-16 17:22:00,55.0,36.0,30.35,WNW,285,0.0,1.0,48,0.00,,,0.00,,2013-01-17 01:22:00,
2013-01-16 17:32:00,54.0,36.0,30.35,North,358,0.0,1.0,50,0.00,,,0.00,,2013-01-17 01:32:00,
2013-01-16 18:02:00,50.0,34.0,30.35,North,358,1.0,1.0,54,0.00,,,0.00,,2013-01-17 02:02:00,
2013-01-16 18:12:00,50.0,34.0,30.35,North,358,1.0,1.0,54,0.00,,,0.00,,2013-01-17 02:12:00,
2013-01-16 18:22:00,49.0,34.0,30.36,North,356,1.0,1.0,56,0.00,,,0.00,,2013-01-17 02:22:00,
2013-01-16 18:32:00,47.0,32.0,30.36,North,349,0.0,1.0,56,0.00,,,0.00,,2013-01-17 02:32:00,
2013-01-16 18:42:00,47.0,32.0,30.36,North,349,0.0,1.0,56,0.00,,,0.00,,2013-01-17 02:42:00,
2013-01-16 18:52:00,47.0,32.0,30.36,North,349,0.0,1.0,56,0.00,,,0.00,,2013-01-17 02:52:00,
2013-01-16 19:02:00,46.0,33.0,30.35,North,350,1.0,2.0,60,0.00,,,0.00,,2013-01-17 03:02:00,
2013-01-16 19:11:00,46.0,33.0,30.35,North,350,1.0,2.0,60,0.00,,,0.00,,2013-01-17 03:11:00,
2013-01-16 19:22:00,45.0,33.0,30.35,North,349,0.0,1.0,62,0.00,,,0.00,,2013-01-17 03:22:00,
2013-01-16 19:32:00,45.0,33.0,30.35,NNW,342,0.0,1.0,63,0.00,,,0.00,,2013-01-17 03:32:00,
2013-01-16 19:42:00,45.0,33.0,30.35,NNW,342,0.0,1.0,63,0.00,,,0.00,,2013-01-17 03:42:00,
2013-01-16 19:52:00,45.0,34.0,30.35,NNW,342,0.0,1.0,65,0.00,,,0.00,,2013-01-17 03:52:00,
2013-01-16 20:02:00,44.0,33.0,30.35,NW,308,0.0,1.0,66,0.00,,,0.00,,2013-01-17 04:02:00,
2013-01-16 20:12:00,44.0,33.0,30.35,North,358,2.0,3.0,66,0.00,,,0.00,,2013-01-17 04:12:00,
2013-01-16 20:22:00,44.0,33.0,30.35,North,358,2.0,3.0,66,0.00,,,0.00,,2013-01-17 04:22:00,
2013-01-16 20:32:00,44.0,34.0,30.35,North,358,0.0,2.0,67,0.00,,,0.00,,2013-01-17 04:32:00,
2013-01-16 20:42:00,44.0,34.0,30.35,North,358,0.0,2.0,67,0.00,,,0.00,,2013-01-17 04:42:00,
2013-01-16 20:52:00,44.0,34.0,30.34,WNW,290,0.0,1.0,68,0.00,,,0.00,,2013-01-17 04:52:00,
2013-01-16 21:03:00,43.0,34.0,30.34,WNW,297,0.0,1.0,70,0.00,,,0.00,,2013-01-17 05:03:00,
2013-01-16 21:12:00,43.0,34.0,30.34,WNW,297,0.0,1.0,70,0.00,,,0.00,,2013-01-17 05:12:00,
2013-01-16 21:22:00,43.0,34.0,30.34,NNW,328,0.0,1.0,70,0.00,,,0.00,,2013-01-17 05:22:00,
2013-01-16 21:32:00,42.0,33.0,30.34,NNW,331,0.0,0.0,70,0.00,,,0.00,,2013-01-17 05:32:00,
2013-01-16 21:42:00,42.0,33.0,30.34,NNW,331,0.0,0.0,70,0.00,,,0.00,,2013-01-17 05:42:00,
2013-01-16 21:53:00,42.0,33.0,30.34,North,353,1.0,2.0,71,0.00,,,0.00,,2013-01-17 05:53:00,
2013-01-16 22:02:00,41.0,32.0,30.34,North,351,0.0,1.0,71,0.00,,,0.00,,2013-01-17 06:02:00,
2013-01-16 22:11:00,41.0,32.0,30.34,North,351,0.0,1.0,71,0.00,,,0.00,,2013-01-17 06:11:00,
2013-01-16 22:22:00,41.0,33.0,30.34,North,352,0.0,1.0,72,0.00,,,0.00,,2013-01-17 06:22:00,
2013-01-16 22:32:00,41.0,33.0,30.34,North,351,1.0,1.0,72,0.00,,,0.00,,2013-01-17 06:32:00,
2013-01-16 22:42:00,41.0,33.0,30.34,North,351,1.0,1.0,72,0.00,,,0.00,,2013-01-17 06:42:00,
2013-01-16 22:52:00,40.0,31.0,30.34,North,356,1.0,2.0,71,0.00,,,0.00,,2013-01-17 06:52:00,
2013-01-16 23:02:00,40.0,32.0,30.34,North,354,1.0,2.0,73,0.00,,,0.00,,2013-01-17 07:02:00,
2013-01-16 23:11:00,40.0,32.0,30.34,North,354,1.0,2.0,73,0.00,,,0.00,,2013-01-17 07:11:00,
2013-01-16 23:22:00,40.0,32.0,30.34,North,354,1.0,2.0,73,0.00,,,0.00,,2013-01-17 07:22:00,
2013-01-16 23:32:00,39.0,32.0,30.34,NNW,344,0.0,1.0,75,0.00,,,0.00,,2013-01-17 07:32:00,
2013-01-16 23:42:00,39.0,32.0,30.34,NNW,344,0.0,1.0,75,0.00,,,0.00,,2013-01-17 07:42:00,
2013-01-16 23:52:00,39.0,32.0,30.34,North,352,0.0,1.0,75,0.00,,,0.00,,2013-01-17 07:52:00,